Location: Marstown
(39.5056°N, 77.0820°W)
Time: 06:46:28
(UTC-05:00)

ISS - Visible Passes

Search period start: 20 February 2018 00:00
Search period end: 02 March 2018 00:00
Orbit: 403 x 407 km, 51.6° (Epoch: 21 February)

Date Brightness Start Highest point End Pass type
(mag) Time Alt. Az. Time Alt. Az. Time Alt. Az.
25 Feb -1.3 05:50:11 10° S 05:52:45 21° SE 05:55:20 10° E visible
26 Feb -0.7 04:59:45 10° SE 05:00:42 11° SE 05:01:39 10° ESE visible
27 Feb -3.2 05:41:20 10° SW 05:44:29 55° SE 05:47:42 10° ENE visible
28 Feb -2.1 04:51:47 26° SSE 04:52:18 27° SE 04:55:08 10° ENE visible
01 Mar -3.7 05:34:43 26° WSW 05:36:19 57° NW 05:39:34 10° NE visible
